Total_Precipitation_Accumulation
2.46 2.53 2.41 2.36 2.23 2.20 2.18 2.09 2.00 2.01 1.92 1.75 1.52 1.48 1.53 1.45 1.47 1.65 1.70 1.76 1.83 2.13 2.58 2.85 2.76 2.56 2.52 2.56 2.57 2.50 2.34 2.16 2.00 1.82 1.61 1.42 1.32 1.27 1.17 1.12 1.10 1.06 1.03
2.72 2.79 2.73 2.65 2.56 2.48 2.54 2.39 2.19 2.35 2.19 2.09 1.89 1.82 1.77 1.81 1.77 1.84 2.02 2.04 1.87 1.90 2.25 2.67 2.89 2.90 2.93 2.86 2.75 2.57 2.42 2.30 2.24 2.15 1.96 1.75 1.58 1.46 1.37 1.31 1.22 1.16 1.12
2.80 2.90 3.05 2.95 2.86 2.80 2.81 2.75 2.64 2.70 2.47 2.32 2.15 2.05 2.03 2.11 2.11 2.03 2.18 2.31 2.10 2.06 2.08 2.24 2.51 2.75 2.96 3.05 3.01 2.88 2.70 2.53 2.42 2.38 2.30 2.14 1.94 1.81 1.70 1.56 1.46 1.41 1.37
2.93 3.22 3.30 3.23 3.24 3.12 3.17 3.27 3.21 3.01 2.86 2.69 2.49 2.18 2.11 2.25 2.27 2.25 2.27 2.39 2.53 2.36 2.25 2.15 2.24 2.42 2.71 2.99 3.13 3.22 3.12 2.92 2.71 2.56 2.48 2.40 2.28 2.12 1.96 1.75 1.64 1.61 1.58
3.44 3.60 3.68 3.69 3.65 3.65 3.64 3.48 3.65 3.46 3.37 3.18 2.77 2.51 2.24 2.18 2.26 2.20 2.27 2.27 2.41 2.43 2.44 2.33 2.25 2.31 2.54 2.91 3.11 3.36 3.43 3.31 3.15 2.93 2.72 2.55 2.52 2.44 2.27 2.08 1.93 1.80 1.70
4.07 4.20 4.14 4.16 4.15 4.16 4.01 3.98 4.00 3.78 3.56 3.50 3.07 2.80 2.55 2.28 2.27 2.26 2.26 2.36 2.31 2.16 2.24 2.34 2.45 2.27 2.44 2.62 2.80 3.07 3.38 3.57 3.51 3.30 3.18 3.02 2.83 2.65 2.38 2.15 1.97 1.86 1.76
4.97 4.99 4.80 4.77 4.65 4.53 4.33 4.24 4.08 3.87 3.62 3.58 3.45 3.01 2.45 2.11 2.07 1.99 2.04 2.23 2.25 2.14 2.16 2.22 2.29 2.24 2.12 2.19 2.30 2.59 3.02 3.48 3.78 3.69 3.49 3.31 3.02 2.78 2.56 2.35 2.16 2.03 1.89
5.81 5.83 5.78 5.56 5.38 5.11 4.64 4.27 4.11 3.88 3.54 3.63 3.62 3.53 2.85 2.38 1.96 1.62 1.72 1.79 1.87 2.03 1.99 1.95 2.06 2.21 2.12 2.09 1.91 2.06 2.35 2.78 3.36 3.68 3.64 3.38 3.17 2.98 2.84 2.69 2.54 2.39 2.20
5.95 6.08 6.03 5.81 5.48 4.93 4.40 4.23 4.16 4.01 3.79 3.71 3.59 3.73 3.22 2.70 2.29 1.82 1.59 1.50 1.60 1.70 1.70 1.72 1.77 1.90 1.90 1.96 1.89 1.88 2.01 2.19 2.70 3.22 3.32 3.12 2.95 2.81 2.75 2.70 2.64 2.55 2.44
5.73 5.62 5.45 5.06 4.67 4.31 4.01 3.88 3.91 3.77 3.75 3.60 3.52 3.26 3.03 2.75 2.49 2.09 1.69 1.49 1.51 1.54 1.55 1.51 1.55 1.75 1.84 1.87 1.89 1.83 1.80 1.89 2.19 2.58 2.86 2.89 2.78 2.71 2.70 2.66 2.63 2.66 2.69
4.93 4.54 4.19 3.97 3.89 3.69 3.46 3.33 3.31 3.22 3.08 3.00 3.01 2.99 2.95 2.71 2.39 2.15 1.87 1.66 1.63 1.51 1.52 1.59 1.65 1.72 1.81 1.88 1.91 1.89 1.84 1.72 1.79 1.93 2.16 2.37 2.50 2.59 2.64 2.72 2.75 2.76 2.78
4.17 3.68 3.41 3.18 3.06 2.88 2.67 2.53 2.51 2.53 2.62 2.67 2.73 2.73 2.70 2.67 2.51 2.43 2.22 1.96 1.84 1.75 1.68 1.64 1.70 1.79 1.94 2.05 2.03 2.20 1.91 1.72 1.68 1.68 1.73 1.86 2.04 2.21 2.35 2.52 2.70 2.79 2.87
3.76 3.29 2.85 2.62 2.39 2.19 2.08 2.04 2.01 2.00 2.11 2.24 2.35 2.41 2.40 2.35 2.33 2.39 2.45 2.21 1.97 1.84 1.73 1.70 1.73 1.82 1.86 2.02 2.22 2.37 2.03 1.87 1.73 1.60 1.54 1.58 1.70 1.81 1.93 2.04 2.23 2.42 2.60
3.13 2.82 2.37 2.00 1.78 1.67 1.58 1.64 1.67 1.69 1.74 1.82 1.91 2.08 2.09 2.04 2.14 2.24 2.34 2.41 2.29 2.00 1.75 1.70 1.79 1.84 1.85 1.86 2.10 2.21 1.90 1.92 1.70 1.60 1.54 1.52 1.54 1.59 1.66 1.75 1.93 2.10 2.18
2.20 2.05 1.85 1.63 1.49 1.45 1.45 1.48 1.47 1.45 1.53 1.61 1.67 1.77 1.88 1.89 1.95 2.04 2.18 2.29 2.35 2.20 1.97 1.82 1.81 1.80 1.81 1.87 2.03 1.67 1.60 1.82 1.70 1.59 1.52 1.43 1.37 1.40 1.44 1.47 1.52 1.62 1.71
1.49 1.46 1.42 1.42 1.36 1.28 1.31 1.37 1.33 1.31 1.40 1.42 1.41 1.49 1.59 1.67 1.77 1.87 1.99 2.09 2.15 2.12 2.02 1.81 1.73 1.73 1.73 1.66 1.82 1.49 1.49 1.68 1.57 1.48 1.39 1.34 1.27 1.28 1.30 1.34 1.38 1.39 1.41
1.21 1.20 1.21 1.23 1.22 1.21 1.20 1.20 1.16 1.16 1.21 1.33 1.41 1.45 1.50 1.56 1.64 1.67 1.69 1.75 1.88 2.00 2.09 1.99 1.80 1.76 1.75 1.69 1.60 1.40 1.30 1.28 1.31 1.38 1.33 1.30 1.22 1.17 1.18 1.18 1.14 1.13 1.12
1.09 1.12 1.12 1.12 1.16 1.22 1.24 1.17 1.08 1.06 1.12 1.22 1.29 1.35 1.35 1.34 1.40 1.51 1.58 1.57 1.62 1.73 1.86 1.91 1.79 1.65 1.62 1.61 1.55 1.47 1.25 1.12 1.11 1.16 1.10 1.05 1.06 1.03 0.99 1.00 1.01 0.97 0.94
1.09 1.05 1.01 1.04 1.12 1.16 1.16 1.11 1.05 1.02 1.03 1.09 1.13 1.14 1.15 1.17 1.17 1.22 1.29 1.36 1.37 1.39 1.54 1.59 1.57 1.52 1.47 1.41 1.45 1.44 1.31 1.33 1.12 1.07 0.98 0.90 0.87 0.86 0.82 0.80 0.83 0.89 0.87
1.03 1.05 1.04 0.99 0.99 0.95 0.89 0.84 0.84 0.88 0.87 0.87 0.89 0.89 0.95 1.04 1.06 1.08 1.07 1.11 1.14 1.25 1.35 1.41 1.39 1.39 1.40 1.32 1.33 1.39 1.34 1.28 1.16 0.96 0.96 0.83 0.75 0.69 0.69 0.70 0.68 0.70 0.74
0.87 0.87 0.89 0.84 0.77 0.67 0.59 0.58 0.62 0.65 0.69 0.69 0.72 0.70 0.71 0.83 0.91 0.88 0.81 0.91 1.03 1.16 1.24 1.27 1.23 1.18 1.16 1.24 1.23 1.19 1.18 1.20 1.14 1.01 1.05 0.91 0.82 0.77 0.78 0.76 0.71 0.67 0.68
0.91 0.81 0.76 0.74 0.67 0.53 0.52 0.48 0.54 0.63 0.70 0.69 0.71 0.72 0.66 0.69 0.71 0.67 0.66 0.78 0.95 0.99 1.05 1.15 1.15 1.16 1.16 1.16 1.17 1.15 1.21 1.27 1.29 1.09 1.07 0.99 0.88 0.89 0.86 0.81 0.77 0.68 0.64
0.99 0.96 0.85 0.77 0.74 0.66 0.53 0.45 0.49 0.61 0.70 0.71 0.70 0.69 0.60 0.56 0.62 0.63 0.64 0.68 0.75 0.76 0.85 1.01 1.12 1.10 1.14 1.20 1.26 1.22 1.30 1.35 1.32 1.21 1.25 1.17 0.99 0.90 0.72 0.64 0.68 0.61 0.60
0.96 0.94 0.87 0.79 0.70 0.54 0.40 0.35 0.36 0.50 0.65 0.69 0.68 0.67 0.68 0.65 0.60 0.61 0.60 0.64 0.73 0.79 0.80 0.84 1.03 1.04 1.01 1.10 1.20 1.27 1.36 1.37 1.33 1.28 1.33 1.34 1.05 0.96 0.78 0.79 0.71 0.57 0.55
0.84 0.80 0.73 0.68 0.67 0.53 0.33 0.28 0.31 0.49 0.66 0.65 0.61 0.55 0.57 0.61 0.61 0.59 0.63 0.76 0.82 0.87 0.73 0.73 0.83 0.90 0.93 0.98 1.01 1.11 1.32 1.49 1.44 1.24 1.22 1.32 1.13 1.02 0.90 0.87 0.78 0.67 0.58
0.76 0.67 0.60 0.63 0.63 0.59 0.43 0.36 0.38 0.49 0.61 0.59 0.60 0.57 0.52 0.52 0.53 0.55 0.64 0.78 0.85 0.85 0.77 0.78 0.94 1.03 1.01 1.09 1.06 1.12 1.35 1.45 1.40 1.36 1.19 1.24 1.21 1.20 1.15 0.91 0.82 0.77 0.71